CST,Max TemperatureF,Mean TemperatureF,Min TemperatureF,Max Dew PointF,MeanDew PointF,Min DewpointF,Max Humidity, Mean Humidity, Min Humidity, Max Sea Level PressureIn, Mean Sea Level PressureIn, Min Sea Level PressureIn, Max VisibilityMiles, Mean VisibilityMiles, Min VisibilityMiles, Max Wind SpeedMPH, Mean Wind SpeedMPH, Max Gust SpeedMPH,PrecipitationIn, CloudCover, Events, WindDirDegrees
2013-12-1,21,20,19,19,18,16,93,89,86,30.21,30.08,29.88,10,8,1,14,5,17,0.00,8,Snow,168
2013-12-2,26,22,19,21,19,18,93,83,74,29.88,29.78,29.72,10,8,2,18,14,25,0.00,8,Snow,68
2013-12-3,23,21,19,18,16,14,86,83,80,29.99,29.92,29.84,10,8,3,18,15,22,0.00,8,Snow,13
2013-12-4,19,14,10,18,12,7,93,86,79,29.98,29.86,29.74,7,2,0,24,13,30,0.00,8,Snow,5
2013-12-5,10,4,-4,7,-1,-9,85,80,71,30.25,29.98,29.74,10,2,0,29,22,38,0.00,7,Fog-Snow,311
2013-12-6,-4,-13,-22,-11,-18,-29,77,70,60,30.53,30.42,30.25,10,10,10,12,9,,0.00,0,,267
2013-12-7,-9,-17,-25,-18,-26,-33,77,68,59,30.53,30.48,30.38,10,10,7,14,6,,0.00,0,,196
2013-12-8,0,-11,-22,-6,-17,-29,84,74,63,30.37,30.15,29.96,10,7,2,16,11,,0.00,4,Snow,172
2013-12-9,-7,-14,-22,-15,-20,-29,77,72,64,29.96,29.89,29.80,10,10,7,13,7,,0.00,0,Snow,218
2013-12-10,-4,-12,-20,-9,-18,-27,84,74,65,30.32,30.00,29.83,10,10,5,16,6,21,0.00,0,Snow,276
2013-12-11,-2,-14,-25,-8,-21,-35,84,70,63,30.38,30.30,30.16,10,10,3,18,8,,0.00,1,Snow,199
2013-12-12,3,-5,-13,-4,-10,-18,84,71,55,30.31,30.22,30.16,10,10,4,17,5,,0.00,6,Snow,5
2013-12-13,-2,-4,-7,-15,-18,-22,60,55,50,30.43,30.38,30.31,10,10,10,14,9,,0.00,5,,39
2013-12-14,-2,-10,-18,-9,-15,-26,78,71,55,30.39,30.25,30.17,10,7,2,12,5,,0.01,5,Snow,7
2013-12-15,0,-14,-27,-6,-22,-36,78,71,62,30.24,30.14,29.92,10,9,2,24,6,,0.00,2,Snow,164
2013-12-16,28,14,1,25,11,-6,92,80,72,29.92,29.75,29.71,10,7,0,25,18,30,0.00,5,Snow,220
2013-12-17,28,12,-5,21,1,-11,86,74,61,30.08,29.96,29.74,10,7,1,29,17,40,0.00,4,Snow,317
2013-12-18,17,8,-2,10,3,-8,85,76,67,30.05,29.72,29.55,10,8,1,28,15,36,0.00,4,Snow,53
2013-12-19,-2,-6,-9,-9,-13,-17,84,74,65,30.31,30.22,30.06,10,9,4,22,13,26,0.00,3,,344
2013-12-20,1,-4,-9,-4,-9,-15,84,77,71,30.14,29.94,29.83,10,10,10,16,10,,0.00,1,,180
2013-12-21,-2,-6,-11,-8,-15,-18,85,74,65,30.23,30.07,29.86,10,10,4,18,9,,0.00,0,,349
2013-12-22,-7,-12,-16,-15,-19,-26,77,69,64,30.47,30.30,30.20,10,10,5,21,13,25,0.00,2,,344
2013-12-23,-14,-18,-23,-20,-26,-31,77,69,63,30.58,30.49,30.29,10,10,10,20,9,,0.00,0,,226
2013-12-24,10,-2,-14,7,-6,-22,85,78,65,30.27,30.05,29.95,10,4,0,29,22,34,0.00,6,Snow,173
2013-12-25,14,11,8,10,6,3,92,83,73,30.13,30.08,29.99,10,6,0,17,6,22,0.00,8,Snow,345
2013-12-26,19,12,6,16,6,1,93,80,73,30.09,30.04,29.94,10,10,10,17,5,,0.00,8,Snow,155
2013-12-27,33,26,19,28,22,18,93,86,75,29.94,29.83,29.68,10,10,7,23,15,25,0.00,5,,282
2013-12-28,23,4,-14,21,1,-24,93,81,64,30.47,30.08,29.81,10,4,0,30,14,39,0.00,6,Snow,5
2013-12-29,-11,-17,-23,-20,-25,-33,77,68,59,30.48,30.33,30.15,10,10,10,15,8,18,0.00,1,,203
2013-12-30,-11,-18,-25,-17,-23,-33,77,71,63,30.26,30.20,30.13,10,10,5,12,5,,0.00,3,,290
2013-12-31,-18,-22,-25,-26,-30,-35,76,67,63,30.45,30.35,30.19,10,10,10,15,6,18,0.00,0,,337